COSMOS 2251 DEB, 34732

Orbit data source: Space-Track

COSMOS 2251 DEB, 34732 is space debris in LEO originally from a launch on Wed, 16 Jun 1993 UTC launched from the Plesetsk Missile And Space Complex (PKMTR). The debris from Iridium 33, an American commercial communications satellite, has been tracked extensively since its accidental collision with the defunct Russian satellite Cosmos 2251 in 2009. This event, occurring at high speed in low Earth orbit (LEO), generated thousands of pieces of space debris, significantly increasing the risk of further collisions. The Iridium 33 debris cloud has impacted space traffic management and orbital debris mitigation strategies, making it a subject of ongoing study in space situational awareness.

Loading next visibility...
Identifier
34732, 1993-036ZA
Orbit
LEO
Country
Flag of CISCIS
Related business
Manufacturer
Unknown
Mission
Spacecraft
Bus & Motor
Unknown
Mass
Unknown
Launch date (UTC)
1993-06-16 (33 years ago)
Launch vehicle
Unknown
Launch site
Plesetsk Missile And Space Complex (PKMTR)
Object type
Payload
Rocket body
Debris
Shape & HBR
Unknown shape, 0.1 m
Radar Cross Section
Small (<0.1 m²)

Expand to show TLE details & history
Last TLE update: 5 hours ago

TLE from 5 hours ago
0 COSMOS 2251 DEB
1 34732U 93036ZA  26038.27560594  .00000620  00000-0  17491-3 0  9990
2 34732  74.0472 347.5315 0038277 124.8012  26.1735 14.47372282889614
Epoch: 2026-02-07T06:36Z
TLE epoch observation values (Epoch: 2026-02-07T06:36:52.353Z)
Latitude
27.67182°
Longitude
-77.66242°
Altitude
712.919 km
Speed
7.515 km/s
True Right ascension
10h 35m 49s
True Declination
27° 31' 47"
Sunlit
Object was in full shadow at epoch
Visualization orbit readout
Latitude
Unknown
Longitude
Unknown
Altitude
Unknown
Speed
Unknown
Apparent Right ascension
Unknown
Apparent Declination
Unknown
Sunlit
N/A
Visualization observer readout
Local Sidereal Time
13:58:11
Azimuth
Unknown
Elevation
Unknown
Doppler factor
Unknown
Orbital elements
Apogee altitude
759.069 km
Perigee altitude
704.639 km
Semi-major axis
7,109.991 km
Eccentricity
0.00383
Inclination
74.0472°
RAAN
347.5315°
Arg. of periapsis
124.8012°
True anomaly
26.36781°
Mean anomaly
26.1735°
Eccentric anomaly
26.27057°
Mean motion
3.62026 °/min
Orbital period
99.44 mins
BSTAR
0.00017491
Loading maneuver chart data...
Computing Atmospheric mass density...

Documentation

Showing up to 5 results
|